• In Latvia
  • List of Countries
  • For 7 days
  • Water Temperature
  • Satellite Maps
  • Weather Map
  • Weather Widgets
  • user-avatar
    Login

    Hourly Weather Sapporo

    Today, 25 February, Sunday

    Time Temperature Precipitation Wind Pressure Humidity
    00:00 -11°C° 0.1 mm 4 mps 764 mmHg 83%
    01:00 -11°C° 0.1 mm 4 mps 764 mmHg 83%
    02:00 -12°C° 0.1 mm 5 mps 764 mmHg 83%
    03:00 -12°C° 0 mm 5 mps 763 mmHg 84%
    04:00 -12°C° 0.1 mm 5 mps 764 mmHg 83%
    05:00 -11°C° 0.1 mm 4 mps 764 mmHg 83%
    06:00 -11°C° 0.1 mm 4 mps 764 mmHg 82%
    07:00 -12°C° 0.1 mm 5 mps 764 mmHg 79%
    08:00 -11°C° 0.1 mm 5 mps 764 mmHg 76%
    09:00 -8°C° 0 mm 3 mps 764 mmHg 73%
    10:00 -9°C° 0.1 mm 4 mps 764 mmHg 72%
    11:00 -8°C° 0.1 mm 5 mps 764 mmHg 71%
    12:00 -8°C° 0.1 mm 5 mps 764 mmHg 71%
    13:00 -8°C° 0.1 mm 5 mps 764 mmHg 72%
    14:00 -8°C° 0.1 mm 5 mps 764 mmHg 73%
    15:00 -7°C° 0 mm 3 mps 763 mmHg 73%
    16:00 -8°C° 0.1 mm 3 mps 763 mmHg 77%
    17:00 -9°C° 0.1 mm 3 mps 764 mmHg 80%
    18:00 -9°C° 0.1 mm 3 mps 764 mmHg 83%
    19:00 -9°C° 0.1 mm 3 mps 764 mmHg 84%
    20:00 -10°C° 0.1 mm 3 mps 764 mmHg 85%
    21:00 -10°C° 0.1 mm 3 mps 764 mmHg 86%
    22:00 -10°C° 0.1 mm 3 mps 764 mmHg 86%
    23:00 -10°C° 0.1 mm 3 mps 764 mmHg 86%

    Tomorrow, 26 February, Monday

    Time Temperature Precipitation Wind Pressure Humidity
    00:00 -10°C° 0.1 mm 3 mps 764 mmHg 87%
    01:00 -10°C° 0.1 mm 3 mps 764 mmHg 87%
    02:00 -10°C° 0.1 mm 3 mps 764 mmHg 87%
    03:00 -10°C° 0.1 mm 3 mps 763 mmHg 87%
    04:00 -9°C° 0.2 mm 3 mps 764 mmHg 87%
    05:00 -9°C° 0.2 mm 3 mps 764 mmHg 87%
    06:00 -9°C° 0.2 mm 3 mps 764 mmHg 87%
    07:00 -8°C° 0.1 mm 3 mps 764 mmHg 84%
    08:00 -7°C° 0.1 mm 3 mps 764 mmHg 81%
    09:00 -6°C° 0.1 mm 3 mps 764 mmHg 77%
    10:00 -6°C° 0.1 mm 3 mps 764 mmHg 75%
    11:00 -6°C° 0.1 mm 3 mps 764 mmHg 73%
    12:00 -5°C° 0.1 mm 3 mps 764 mmHg 71%
    13:00 -5°C° 0.1 mm 3 mps 764 mmHg 70%
    14:00 -5°C° 0.1 mm 3 mps 764 mmHg 70%
    15:00 -5°C° 0.1 mm 3 mps 763 mmHg 70%
    16:00 -6°C° 0.1 mm 3 mps 764 mmHg 74%
    17:00 -7°C° 0.1 mm 3 mps 764 mmHg 78%
    18:00 -8°C° 0.1 mm 2 mps 765 mmHg 83%
    19:00 -8°C° 0.1 mm 2 mps 765 mmHg 84%
    20:00 -8°C° 0.1 mm 2 mps 765 mmHg 86%
    21:00 -8°C° 0.1 mm 2 mps 765 mmHg 87%
    22:00 -7°C° 0.1 mm 1 mps 765 mmHg 88%
    23:00 -7°C° 0.1 mm 1 mps 766 mmHg 89%

    Day after tomorrow, 27 February, Tuesday

    Time Temperature Precipitation Wind Pressure Humidity
    00:00 -8°C° 0.1 mm 1 mps 766 mmHg 89%
    01:00 -8°C° 0 mm 1 mps 766 mmHg 89%
    02:00 -8°C° 0 mm 1 mps 766 mmHg 89%
    03:00 -9°C° 0 mm 1 mps 766 mmHg 89%
    04:00 -9°C° 0 mm 1 mps 766 mmHg 88%
    05:00 -9°C° 0 mm 1 mps 766 mmHg 88%
    06:00 -9°C° 0 mm 1 mps 766 mmHg 88%
    07:00 -8°C° 0 mm 1 mps 766 mmHg 84%
    08:00 -6°C° 0 mm 1 mps 766 mmHg 79%
    09:00 -3°C° 0 mm 1 mps 766 mmHg 75%
    10:00 -2°C° 0 mm 1 mps 766 mmHg 74%
    11:00 -1°C° 0 mm 1 mps 765 mmHg 72%
    12:00 0°C° 0 mm 1 mps 765 mmHg 70%
    13:00 -2°C° 0.1 mm 2 mps 764 mmHg 69%
    14:00 -2°C° 0.1 mm 2 mps 764 mmHg 69%
    15:00 -2°C° 0.1 mm 2 mps 763 mmHg 69%
    16:00 -3°C° 0.1 mm 2 mps 763 mmHg 73%
    17:00 -4°C° 0.1 mm 2 mps 763 mmHg 77%
    18:00 -5°C° 0.1 mm 2 mps 763 mmHg 81%
    19:00 -5°C° 0.1 mm 2 mps 763 mmHg 83%
    20:00 -5°C° 0.1 mm 2 mps 762 mmHg 85%
    21:00 -6°C° 0.1 mm 2 mps 762 mmHg 87%
    22:00 -6°C° 0.3 mm 2 mps 761 mmHg 88%
    23:00 -6°C° 0.3 mm 2 mps 760 mmHg 90%

    28 February, Wednesday

    Time Temperature Precipitation Wind Pressure Humidity
    00:00 -6°C° 0.3 mm 2 mps 760 mmHg 91%
    01:00 -6°C° 0.3 mm 2 mps 760 mmHg 92%
    02:00 -6°C° 0.3 mm 2 mps 759 mmHg 93%
    03:00 -6°C° 0.3 mm 2 mps 759 mmHg 94%
    04:00 -7°C° 0.1 mm 2 mps 760 mmHg 93%
    05:00 -7°C° 0.1 mm 2 mps 760 mmHg 93%
    06:00 -7°C° 0.1 mm 1 mps 760 mmHg 92%
    07:00 -6°C° 0.1 mm 2 mps 761 mmHg 89%
    08:00 -5°C° 0.1 mm 2 mps 761 mmHg 86%
    09:00 -3°C° 0.1 mm 2 mps 762 mmHg 83%
    10:00 -2°C° 0.1 mm 2 mps 761 mmHg 82%
    11:00 -2°C° 0.1 mm 3 mps 761 mmHg 81%
    12:00 -1°C° 0.1 mm 3 mps 761 mmHg 81%
    13:00 -1°C° 0.1 mm 3 mps 761 mmHg 79%
    14:00 -1°C° 0.1 mm 3 mps 761 mmHg 77%
    15:00 -1°C° 0.1 mm 3 mps 761 mmHg 75%
    16:00 -2°C° 0 mm 3 mps 761 mmHg 77%
    17:00 -4°C° 0 mm 2 mps 761 mmHg 80%
    18:00 -5°C° 0 mm 2 mps 762 mmHg 83%
    19:00 -3°C° 0 mm 1 mps 762 mmHg 84%
    20:00 -4°C° 0 mm 1 mps 762 mmHg 85%
    21:00 -4°C° 0 mm 1 mps 761 mmHg 86%
    22:00 -4°C° 0 mm 1 mps 761 mmHg 85%
    23:00 -4°C° 0 mm 1 mps 760 mmHg 85%

    1 March, Thursday

    Time Temperature Precipitation Wind Pressure Humidity
    00:00 -4°C° 0 mm 1 mps 760 mmHg 85%
    01:00 -6°C° 0 mm 2 mps 759 mmHg 85%
    02:00 -6°C° 0 mm 2 mps 758 mmHg 85%
    03:00 -7°C° 0 mm 3 mps 757 mmHg 85%
    04:00 -7°C° 0 mm 3 mps 756 mmHg 85%
    05:00 -6°C° 0 mm 3 mps 755 mmHg 84%
    06:00 -7°C° 0 mm 4 mps 753 mmHg 84%
    07:00 -5°C° 0.5 mm 4 mps 752 mmHg 85%
    08:00 -5°C° 0.5 mm 5 mps 751 mmHg 86%
    09:00 -5°C° 0.5 mm 5 mps 749 mmHg 87%
    10:00 -4°C° 0.9 mm 6 mps 747 mmHg 87%
    11:00 -4°C° 0.9 mm 6 mps 745 mmHg 87%
    12:00 -3°C° 0.9 mm 7 mps 744 mmHg 87%
    13:00 -3°C° 0.8 mm 6 mps 741 mmHg 87%
    14:00 -3°C° 0.8 mm 6 mps 738 mmHg 87%
    15:00 -2°C° 0.8 mm 6 mps 735 mmHg 86%
    16:00 -3°C° 1.4 mm 6 mps 735 mmHg 89%
    17:00 -3°C° 1.4 mm 6 mps 734 mmHg 91%
    18:00 -2°C° 1.4 mm 5 mps 733 mmHg 94%
    19:00 -2°C° 0.8 mm 5 mps 733 mmHg 94%
    20:00 -2°C° 0.8 mm 4 mps 733 mmHg 94%
    21:00 -2°C° 0.8 mm 4 mps 733 mmHg 94%
    22:00 -3°C° 0.2 mm 4 mps 734 mmHg 93%
    23:00 -3°C° 0.2 mm 4 mps 734 mmHg 92%

    2 March, Friday

    Time Temperature Precipitation Wind Pressure Humidity
    00:00 -3°C° 0.2 mm 4 mps 734 mmHg 91%
    01:00 -4°C° 0.3 mm 5 mps 735 mmHg 91%
    02:00 -4°C° 0.3 mm 5 mps 736 mmHg 90%
    03:00 -4°C° 0.3 mm 5 mps 737 mmHg 90%
    04:00 -4°C° 0.3 mm 5 mps 739 mmHg 90%
    05:00 -4°C° 0.3 mm 5 mps 740 mmHg 90%
    06:00 -4°C° 0.3 mm 5 mps 742 mmHg 90%
    07:00 -4°C° 0.3 mm 6 mps 743 mmHg 89%
    08:00 -3°C° 0.3 mm 6 mps 744 mmHg 89%
    09:00 -3°C° 0.3 mm 6 mps 745 mmHg 88%
    10:00 -3°C° 0.3 mm 6 mps 746 mmHg 87%
    11:00 -3°C° 0.3 mm 7 mps 747 mmHg 86%
    12:00 -3°C° 0.3 mm 7 mps 748 mmHg 85%
    13:00 -3°C° 0.3 mm 7 mps 749 mmHg 85%
    14:00 -3°C° 0.3 mm 7 mps 750 mmHg 84%
    15:00 -3°C° 0.3 mm 7 mps 751 mmHg 84%
    16:00 -4°C° 0.3 mm 7 mps 752 mmHg 84%
    17:00 -6°C° 0.3 mm 7 mps 753 mmHg 84%
    18:00 -7°C° 0.3 mm 7 mps 754 mmHg 84%
    19:00 -8°C° 0.1 mm 6 mps 755 mmHg 84%
    20:00 -8°C° 0.1 mm 6 mps 756 mmHg 84%
    21:00 -8°C° 0.1 mm 5 mps 756 mmHg 84%
    22:00 -8°C° 0.1 mm 5 mps 757 mmHg 84%
    23:00 -8°C° 0.1 mm 5 mps 757 mmHg 85%
    Show more